Weather History for Mobile Downtown, AL

Change the Weather History Date:

Thursday, December 13, 2012

  Actual Average Record
Temperature  
Mean Temperature 48 °F -  
Max Temperature 63 °F 60 °F 77 °F (2007)
Min Temperature 34 °F 41 °F 28 °F (2010)
Degree Days  
Heating Degree Days 16    
Moisture  
Dew Point 36 °F    
Average Humidity 71    
Maximum Humidity 92    
Minimum Humidity 41    
Precipitation  
Precipitation 0.00 in - - ()
Sea Level Pressure  
Sea Level Pressure 30.30 in    
Wind  
Wind Speed 8 mph (NNW)    
Max Wind Speed 10 mph    
Max Gust Speed -    
Visibility 10 miles    
Events      
Averages and records for this station are not official NWS values.
T = Trace of Precipitation, MM = Missing Value Source: NWS Daily Summary

Daily Weather History Graph

Daily Weather History Graph

Search for Another Location

Airport:

Trip Planner

Search our weather history database for the weather conditions in past years. The results will help you decide how hot, cold, wet, or windy it might be!

Date:

Astronomy

Dec. 13, 2012 Rise Set
Actual Time 6:41 AM CST 4:52 PM CST
Civil Twilight 6:14 AM CST 5:18 PM CST
Nautical Twilight 5:44 AM CST 5:48 PM CST
Astronomical Twilight 5:15 AM CST 6:18 PM CST
Moon 6:50 AM CST (12/13) 5:32 PM CST (12/13)
Length of Visible Light 11h 04m
Length of Day
10h 11m
New Moon, 0% of the Moon is Illuminated
Dec 13
New Moon
Dec 19
First Quarter
Dec 28
Full
Jan 4
Last Quarter
Jan 11
New

Hourly Weather History & Observations

Time (CST) Temp. Windchill Dew Point Humidity Pressure Visibility Wind Dir Wind Speed Gust Speed Precip Events Conditions
12:53 AM 39.9 °F 33.4 °F 30.9 °F 70% 30.29 in 10.0 mi NNW 10.4 mph - N/A   Clear
1:53 AM 37.9 °F 32.7 °F 30.0 °F 73% 30.27 in 10.0 mi North 6.9 mph - N/A   Clear
2:53 AM 37.9 °F 32.7 °F 30.9 °F 76% 30.28 in 10.0 mi NNW 6.9 mph - N/A   Clear
3:53 AM 35.1 °F 29.3 °F 30.0 °F 82% 30.27 in 10.0 mi NNW 6.9 mph - N/A   Clear
4:53 AM 34.0 °F 27.2 °F 30.0 °F 85% 30.29 in 10.0 mi NW 8.1 mph - N/A   Clear
5:53 AM 35.1 °F 27.9 °F 30.9 °F 85% 30.30 in 10.0 mi NNW 9.2 mph - N/A   Clear
6:53 AM 36.0 °F 29.0 °F 30.9 °F 82% 30.32 in 10.0 mi North 9.2 mph - N/A   Clear
7:53 AM 41.0 °F 36.4 °F 33.1 °F 73% 30.35 in 10.0 mi North 6.9 mph - N/A   Clear
8:53 AM 45.0 °F 39.7 °F 37.0 °F 74% 30.35 in 10.0 mi NNE 10.4 mph - N/A   Clear
9:53 AM 50.0 °F - 39.0 °F 66% 30.36 in 10.0 mi North 9.2 mph - N/A   Clear
10:53 AM 55.0 °F - 41.0 °F 59% 30.35 in 10.0 mi North 5.8 mph - N/A   Clear
11:53 AM 57.0 °F - 41.0 °F 55% 30.33 in 10.0 mi NNE 9.2 mph - N/A   Clear
12:53 PM 61.0 °F - 41.0 °F 48% 30.29 in 10.0 mi NNE 8.1 mph - N/A   Clear
1:53 PM 63.0 °F - 39.9 °F 43% 30.26 in 10.0 mi NNE 6.9 mph - N/A   Clear
2:53 PM 63.0 °F - 39.0 °F 41% 30.25 in 10.0 mi North 8.1 mph - N/A   Clear
3:53 PM 62.1 °F - 39.9 °F 44% 30.26 in 10.0 mi NNW 5.8 mph - N/A   Clear
7:53 PM 42.1 °F 40.2 °F 39.9 °F 92% 30.30 in 10.0 mi NNW 3.5 mph - N/A   Clear
8:53 PM 46.0 °F 43.1 °F 43.0 °F 89% 30.30 in 10.0 mi West 5.8 mph - N/A   Clear
9:53 PM 44.1 °F 41.5 °F 39.9 °F 85% 30.31 in 10.0 mi NW 4.6 mph - N/A   Clear
10:53 PM 43.0 °F 40.3 °F 39.9 °F 89% 30.31 in 10.0 mi NNW 4.6 mph - N/A   Clear